| time (UTC) | temp F | wind direction | speed MPH | gust MPH | rain 1hr in | rain 24hr in | rain mn in | humidity % | barometer mb |
| 20260504170633 | 69 | 229 | 1.0 | 3.0 | 0.00 | 0.00 | 0.00 | 35 | 1015.0 |
| 20260504170130 | 70 | 250 | 5.0 | 11.0 | 0.00 | 0.00 | 0.00 | 31 | 1015.1 |
| 20260504151016 | 66 | 86 | 4.0 | 11.0 | 0.00 | 0.00 | 0.00 | 38 | 1016.4 |
| 20260504150513 | 67 | 252 | 4.0 | 8.0 | 0.00 | 0.00 | 0.00 | 38 | 1016.2 |
| 20260504140939 | 63 | 191 | 2.0 | 6.0 | 0.00 | 0.00 | 0.00 | 49 | 1016.8 |
| 20260504140436 | 62 | 142 | 2.0 | 6.0 | 0.00 | 0.00 | 0.00 | 49 | 1016.7 |
| 20260504130400 | 60 | 315 | 3.0 | 6.0 | 0.00 | 0.00 | 0.00 | 51 | 1017.2 |
| 20260504110248 | 51 | 142 | 2.0 | 4.0 | 0.00 | 0.00 | 0.00 | 70 | 1017.9 |
| 20260504100211 | 48 | 239 | 1.0 | 3.0 | 0.00 | 0.00 | 0.00 | 69 | 1017.8 |
| 20260504090133 | 46 | 128 | 0.0 | 1.0 | 0.00 | 0.00 | 0.00 | 69 | 1017.8 |
| 20260504081604 | 44 | 111 | 0.0 | 0.0 | 0.00 | 0.00 | 0.00 | 72 | 1017.6 |
| 20260504081059 | 43 | 117 | 0.0 | 1.0 | 0.00 | 0.00 | 0.00 | 73 | 1017.7 |
| 20260504080556 | 43 | 104 | 0.0 | 0.0 | 0.00 | 0.00 | 0.00 | 73 | 1017.6 |
| 20260504050409 | 44 | 109 | 0.0 | 0.0 | 0.00 | 0.00 | 0.00 | 65 | 1017.2 |
| 20260504045906 | 44 | 111 | 0.0 | 0.0 | 0.00 | 0.00 | 0.00 | 65 | 1017.2 |
| 20260504045401 | 45 | 111 | 0.0 | 1.0 | 0.00 | 0.00 | 0.00 | 65 | 1017.2 |
| 20260504044858 | 45 | 102 | 0.0 | 0.0 | 0.00 | 0.00 | 0.00 | 63 | 1017.0 |
| 20260504044356 | 45 | 107 | 0.0 | 0.0 | 0.00 | 0.00 | 0.00 | 62 | 1017.1 |
| 20260504043853 | 45 | 104 | 0.0 | 0.0 | 0.00 | 0.00 | 0.00 | 62 | 1017.2 |
| 20260504043350 | 45 | 110 | 0.0 | 0.0 | 0.00 | 0.00 | 0.00 | 63 | 1016.9 |
| 20260504042848 | 45 | 105 | 0.0 | 0.0 | 0.00 | 0.00 | 0.00 | 63 | 1017.0 |
| 20260504042344 | 45 | 103 | 0.0 | 0.0 | 0.00 | 0.00 | 0.00 | 61 | 1016.9 |
| 20260504041840 | 45 | 108 | 0.0 | 0.0 | 0.00 | 0.00 | 0.00 | 61 | 1017.0 |
| 20260504041336 | 46 | 109 | 0.0 | 0.0 | 0.00 | 0.00 | 0.00 | 62 | 1016.7 |
| 20260504040832 | 46 | 110 | 0.0 | 0.0 | 0.00 | 0.00 | 0.00 | 60 | 1016.7 |
| 20260504040330 | 47 | 109 | 0.0 | 0.0 | 0.00 | 0.00 | 0.00 | 58 | 1016.9 |
| 20260504035826 | 47 | 110 | 0.0 | 2.0 | 0.00 | 0.00 | 0.00 | 57 | 1016.9 |
| 20260504035324 | 47 | 107 | 0.0 | 0.0 | 0.00 | 0.00 | 0.00 | 57 | 1016.8 |
| 20260504034821 | 47 | 107 | 0.0 | 0.0 | 0.00 | 0.00 | 0.00 | 56 | 1016.6 |
| 20260504034318 | 47 | 121 | 0.0 | 1.0 | 0.00 | 0.00 | 0.00 | 57 | 1016.8 |
| 20260504033815 | 47 | 109 | 0.0 | 0.0 | 0.00 | 0.00 | 0.00 | 59 | 1016.5 |
| 20260504033313 | 47 | 101 | 0.0 | 0.0 | 0.00 | 0.00 | 0.00 | 58 | 1016.4 |
| 20260504032809 | 46 | 103 | 0.0 | 0.0 | 0.00 | 0.00 | 0.00 | 57 | 1016.4 |
| 20260504032306 | 47 | 103 | 0.0 | 0.0 | 0.00 | 0.00 | 0.00 | 56 | 1016.4 |
| 20260504031803 | 48 | 109 | 0.0 | 0.0 | 0.00 | 0.00 | 0.00 | 55 | 1016.5 |
| 20260504031301 | 48 | 104 | 0.0 | 0.0 | 0.00 | 0.00 | 0.00 | 53 | 1016.6 |
| 20260504030756 | 48 | 102 | 0.0 | 0.0 | 0.00 | 0.00 | 0.00 | 54 | 1016.6 |
| 20260504030254 | 48 | 99 | 0.0 | 1.0 | 0.00 | 0.00 | 0.00 | 53 | 1016.7 |
| 20260504025750 | 48 | 97 | 0.0 | 1.0 | 0.00 | 0.00 | 0.00 | 53 | 1016.6 |
| 20260504025247 | 47 | 118 | 0.0 | 1.0 | 0.00 | 0.00 | 0.00 | 54 | 1016.5 |
| 20260504024744 | 47 | 108 | 0.0 | 0.0 | 0.00 | 0.00 | 0.00 | 56 | 1016.6 |
| 20260504024240 | 47 | 108 | 0.0 | 0.0 | 0.00 | 0.00 | 0.00 | 56 | 1016.4 |
| 20260504023737 | 47 | 108 | 0.0 | 0.0 | 0.00 | 0.00 | 0.00 | 56 | 1016.3 |
| 20260504023233 | 47 | 116 | 0.0 | 2.0 | 0.00 | 0.00 | 0.00 | 55 | 1016.6 |
| 20260504022729 | 47 | 110 | 0.0 | 1.0 | 0.00 | 0.00 | 0.00 | 55 | 1016.5 |
| 20260504022226 | 48 | 106 | 0.0 | 0.0 | 0.00 | 0.00 | 0.00 | 55 | 1016.5 |
| 20260504021723 | 48 | 107 | 0.0 | 0.0 | 0.00 | 0.00 | 0.00 | 55 | 1016.4 |
| 20260504021220 | 47 | 99 | 0.0 | 0.0 | 0.00 | 0.00 | 0.00 | 55 | 1016.3 |
| 20260504020717 | 47 | 105 | 0.0 | 0.0 | 0.00 | 0.00 | 0.00 | 55 | 1016.4 |
| 20260504020214 | 47 | 100 | 0.0 | 0.0 | 0.00 | 0.00 | 0.00 | 54 | 1016.5 |
| 20260504015710 | 47 | 100 | 0.0 | 0.0 | 0.00 | 0.00 | 0.00 | 54 | 1016.3 |
| 20260504015207 | 48 | 100 | 0.0 | 0.0 | 0.00 | 0.00 | 0.00 | 52 | 1016.4 |
| 20260504014702 | 48 | 100 | 0.0 | 0.0 | 0.00 | 0.00 | 0.00 | 52 | 1016.4 |
| 20260504014159 | 48 | 102 | 0.0 | 0.0 | 0.00 | 0.00 | 0.00 | 52 | 1016.3 |
| 20260504013657 | 49 | 105 | 0.0 | 0.0 | 0.00 | 0.00 | 0.00 | 52 | 1016.4 |
| 20260504013154 | 49 | 105 | 0.0 | 0.0 | 0.00 | 0.00 | 0.00 | 51 | 1016.4 |
| 20260504012651 | 50 | 105 | 0.0 | 0.0 | 0.00 | 0.00 | 0.00 | 50 | 1016.3 |
| 20260504012149 | 50 | 98 | 0.0 | 0.0 | 0.00 | 0.00 | 0.00 | 48 | 1016.2 |
| 20260504011645 | 50 | 98 | 0.0 | 0.0 | 0.00 | 0.00 | 0.00 | 47 | 1015.8 |
| 20260504011142 | 50 | 107 | 0.0 | 0.0 | 0.00 | 0.00 | 0.00 | 48 | 1016.3 |
| 20260504010638 | 51 | 107 | 0.0 | 0.0 | 0.00 | 0.00 | 0.00 | 47 | 1015.9 |
| 20260504010134 | 51 | 114 | 0.0 | 1.0 | 0.00 | 0.00 | 0.00 | 48 | 1015.8 |
| 20260504005631 | 52 | 114 | 0.0 | 0.0 | 0.00 | 0.00 | 0.00 | 46 | 1015.6 |
| 20260504005127 | 52 | 113 | 0.0 | 0.0 | 0.00 | 0.00 | 0.00 | 45 | 1015.5 |
| 20260504004626 | 53 | 113 | 0.0 | 0.0 | 0.00 | 0.00 | 0.00 | 43 | 1015.6 |
| 20260504004123 | 53 | 108 | 0.0 | 0.0 | 0.00 | 0.00 | 0.00 | 42 | 1015.6 |
| 20260504003619 | 54 | 108 | 0.0 | 0.0 | 0.00 | 0.00 | 0.00 | 40 | 1015.3 |
| 20260504003115 | 55 | 111 | 0.0 | 0.0 | 0.00 | 0.00 | 0.00 | 38 | 1015.4 |
| 20260504002612 | 56 | 118 | 0.0 | 0.0 | 0.00 | 0.00 | 0.00 | 34 | 1015.3 |
| 20260504002110 | 57 | 132 | 0.0 | 1.0 | 0.00 | 0.00 | 0.00 | 34 | 1015.4 |
| 20260504001608 | 57 | 171 | 1.0 | 2.0 | 0.00 | 0.00 | 0.00 | 33 | 1015.0 |
| 20260504001103 | 57 | 207 | 0.0 | 1.0 | 0.00 | 0.00 | 0.00 | 32 | 1015.2 |
| 20260504000600 | 57 | 239 | 2.0 | 3.0 | 0.00 | 0.00 | 0.00 | 32 | 1015.2 |
| 20260504000058 | 58 | 108 | 1.0 | 4.0 | 0.00 | 0.00 | 0.00 | 31 | 1015.4 |
| 20260503235556 | 58 | 120 | 2.0 | 3.0 | 0.00 | 0.00 | 0.00 | 30 | 1015.0 |
| 20260503235053 | 58 | 105 | 2.0 | 6.0 | 0.00 | 0.00 | 0.00 | 30 | 1014.9 |
| 20260503234550 | 59 | 255 | 2.0 | 7.0 | 0.00 | 0.00 | 0.00 | 30 | 1014.9 |
| 20260503234048 | 59 | 328 | 3.0 | 6.0 | 0.00 | 0.00 | 0.00 | 29 | 1015.1 |
| 20260503233544 | 59 | 243 | 3.0 | 8.0 | 0.00 | 0.00 | 0.00 | 29 | 1014.9 |
| 20260503233041 | 60 | 342 | 5.0 | 8.0 | 0.00 | 0.00 | 0.00 | 28 | 1014.9 |
| 20260503232538 | 60 | 313 | 7.0 | 9.0 | 0.00 | 0.00 | 0.00 | 28 | 1014.6 |
| 20260503232035 | 60 | 87 | 1.0 | 4.0 | 0.00 | 0.00 | 0.00 | 28 | 1014.7 |
| 20260503231533 | 60 | 168 | 4.0 | 8.0 | 0.00 | 0.00 | 0.00 | 27 | 1014.7 |
| 20260503231029 | 60 | 232 | 1.0 | 6.0 | 0.00 | 0.00 | 0.00 | 27 | 1014.5 |
| 20260503230526 | 60 | 131 | 1.0 | 4.0 | 0.00 | 0.00 | 0.00 | 27 | 1014.6 |
| 20260503230024 | 60 | 325 | 4.0 | 7.0 | 0.00 | 0.00 | 0.00 | 27 | 1014.8 |
| 20260503225520 | 60 | 238 | 4.0 | 10.0 | 0.00 | 0.00 | 0.00 | 26 | 1014.5 |
| 20260503225015 | 60 | 101 | 0.0 | 7.0 | 0.00 | 0.00 | 0.00 | 28 | 1014.6 |
| 20260503224514 | 60 | 306 | 2.0 | 10.0 | 0.00 | 0.00 | 0.00 | 27 | 1014.6 |
| 20260503224011 | 60 | 129 | 3.0 | 10.0 | 0.00 | 0.00 | 0.00 | 26 | 1014.5 |
| 20260503223509 | 60 | 7 | 1.0 | 8.0 | 0.00 | 0.00 | 0.00 | 28 | 1014.5 |
| 20260503223004 | 60 | 38 | 3.0 | 9.0 | 0.00 | 0.00 | 0.00 | 26 | 1014.5 |
| 20260503222502 | 60 | 233 | 4.0 | 11.0 | 0.00 | 0.00 | 0.00 | 27 | 1014.5 |
| 20260503222000 | 60 | 256 | 6.0 | 11.0 | 0.00 | 0.00 | 0.00 | 26 | 1014.5 |
| 20260503221458 | 60 | 95 | 1.0 | 6.0 | 0.00 | 0.00 | 0.00 | 28 | 1014.6 |
| 20260503220955 | 61 | 278 | 3.0 | 4.0 | 0.00 | 0.00 | 0.00 | 28 | 1014.5 |
| 20260503220451 | 61 | 319 | 1.0 | 9.0 | 0.00 | 0.00 | 0.00 | 27 | 1014.4 |
| 20260503215948 | 61 | 1 | 8.0 | 13.0 | 0.00 | 0.00 | 0.00 | 26 | 1014.4 |
| 20260503215445 | 61 | 104 | 1.0 | 7.0 | 0.00 | 0.00 | 0.00 | 27 | 1014.7 |
| 20260503214943 | 62 | 304 | 6.0 | 11.0 | 0.00 | 0.00 | 0.00 | 26 | 1014.8 |
| 20260503214440 | 61 | 326 | 2.0 | 4.0 | 0.00 | 0.00 | 0.00 | 27 | 1014.6 |
| 20260503213938 | 61 | 92 | 1.0 | 11.0 | 0.00 | 0.00 | 0.00 | 27 | 1014.7 |
| 20260503213436 | 61 | 322 | 9.0 | 11.0 | 0.00 | 0.00 | 0.00 | 26 | 1014.5 |
| 20260503212932 | 61 | 12 | 5.0 | 14.0 | 0.00 | 0.00 | 0.00 | 26 | 1014.6 |
| 20260503212429 | 61 | 141 | 5.0 | 15.0 | 0.00 | 0.00 | 0.00 | 26 | 1014.5 |
| 20260503211927 | 61 | 247 | 4.0 | 8.0 | 0.00 | 0.00 | 0.00 | 27 | 1014.6 |
| 20260503211423 | 61 | 45 | 2.0 | 8.0 | 0.00 | 0.00 | 0.00 | 29 | 1014.7 |
| 20260503210919 | 61 | 326 | 2.0 | 11.0 | 0.00 | 0.00 | 0.00 | 28 | 1014.6 |
| 20260503210416 | 60 | 113 | 2.0 | 7.0 | 0.00 | 0.00 | 0.00 | 29 | 1014.6 |
| 20260503205916 | 60 | 239 | 7.0 | 14.0 | 0.00 | 0.00 | 0.00 | 28 | 1014.7 |
| 20260503205414 | 60 | 316 | 9.0 | 17.0 | 0.00 | 0.00 | 0.00 | 27 | 1014.8 |
| 20260503204910 | 60 | 69 | 3.0 | 11.0 | 0.00 | 0.00 | 0.00 | 28 | 1014.8 |
| 20260503204407 | 59 | 306 | 7.0 | 10.0 | 0.00 | 0.00 | 0.00 | 28 | 1014.7 |
| 20260503203904 | 59 | 45 | 2.0 | 11.0 | 0.00 | 0.00 | 0.00 | 29 | 1014.7 |
| 20260503203401 | 60 | 135 | 3.0 | 6.0 | 0.00 | 0.00 | 0.00 | 28 | 1014.9 |
| 20260503202858 | 61 | 263 | 8.0 | 11.0 | 0.00 | 0.00 | 0.00 | 26 | 1014.7 |
| 20260503202356 | 61 | 211 | 7.0 | 13.0 | 0.00 | 0.00 | 0.00 | 27 | 1014.7 |
| 20260503201855 | 60 | 215 | 3.0 | 9.0 | 0.00 | 0.00 | 0.00 | 29 | 1014.9 |
| 20260503201351 | 59 | 334 | 7.0 | 8.0 | 0.00 | 0.00 | 0.00 | 27 | 1014.9 |
| 20260503200849 | 59 | 317 | 4.0 | 10.0 | 0.00 | 0.00 | 0.00 | 28 | 1014.8 |
| 20260503200344 | 59 | 9 | 6.0 | 15.0 | 0.00 | 0.00 | 0.00 | 29 | 1014.7 |
| 20260503195842 | 60 | 338 | 5.0 | 16.0 | 0.00 | 0.00 | 0.00 | 26 | 1014.8 |
| 20260503195338 | 60 | 321 | 4.0 | 13.0 | 0.00 | 0.00 | 0.00 | 28 | 1014.9 |
| 20260503194836 | 60 | 283 | 10.0 | 16.0 | 0.00 | 0.00 | 0.00 | 28 | 1014.8 |
| 20260503194331 | 60 | 342 | 6.0 | 9.0 | 0.00 | 0.00 | 0.00 | 29 | 1015.0 |
| 20260503193828 | 59 | 273 | 5.0 | 16.0 | 0.00 | 0.00 | 0.00 | 27 | 1015.2 |
| 20260503193324 | 60 | 350 | 8.0 | 11.0 | 0.00 | 0.00 | 0.00 | 28 | 1015.0 |
| 20260503192820 | 59 | 285 | 5.0 | 8.0 | 0.00 | 0.00 | 0.00 | 29 | 1015.0 |
| 20260503192316 | 59 | 354 | 7.0 | 8.0 | 0.00 | 0.00 | 0.00 | 30 | 1015.2 |
| 20260503191812 | 58 | 69 | 2.0 | 10.0 | 0.00 | 0.00 | 0.00 | 30 | 1015.2 |
| 20260503191309 | 58 | 208 | 2.0 | 14.0 | 0.00 | 0.00 | 0.00 | 30 | 1015.2 |
| 20260503190806 | 59 | 342 | 9.0 | 16.0 | 0.00 | 0.00 | 0.00 | 28 | 1015.3 |
| 20260503190303 | 59 | 37 | 6.0 | 10.0 | 0.00 | 0.00 | 0.00 | 31 | 1015.3 |
| 20260503185800 | 59 | 190 | 8.0 | 10.0 | 0.00 | 0.00 | 0.00 | 31 | 1015.3 |
| 20260503185255 | 59 | 280 | 5.0 | 9.0 | 0.00 | 0.00 | 0.00 | 29 | 1015.2 |
| 20260503184755 | 60 | 349 | 6.0 | 9.0 | 0.00 | 0.00 | 0.00 | 29 | 1015.5 |
| 20260503184252 | 60 | 324 | 3.0 | 8.0 | 0.00 | 0.00 | 0.00 | 30 | 1015.5 |
| 20260503183748 | 59 | 195 | 3.0 | 8.0 | 0.00 | 0.00 | 0.00 | 30 | 1015.6 |
| 20260503183246 | 59 | 280 | 6.0 | 8.0 | 0.00 | 0.00 | 0.00 | 30 | 1015.5 |
| 20260503182743 | 58 | 343 | 6.0 | 10.0 | 0.00 | 0.00 | 0.00 | 29 | 1015.6 |
| 20260503182242 | 58 | 232 | 5.0 | 15.0 | 0.00 | 0.00 | 0.00 | 31 | 1015.8 |
| 20260503181738 | 57 | 316 | 3.0 | 7.0 | 0.00 | 0.00 | 0.00 | 33 | 1015.6 |
| 20260503181235 | 57 | 314 | 4.0 | 7.0 | 0.00 | 0.00 | 0.00 | 33 | 1015.7 |
| 20260503180732 | 56 | 355 | 5.0 | 8.0 | 0.00 | 0.00 | 0.00 | 35 | 1015.7 |
| 20260503180230 | 57 | 255 | 4.0 | 6.0 | 0.00 | 0.00 | 0.00 | 34 | 1015.8 |
| 20260503175726 | 57 | 202 | 1.0 | 11.0 | 0.00 | 0.00 | 0.00 | 36 | 1015.7 |
| 20260503175225 | 56 | 53 | 3.0 | 9.0 | 0.00 | 0.00 | 0.00 | 36 | 1015.9 |
| 20260503174720 | 57 | 302 | 5.0 | 11.0 | 0.00 | 0.00 | 0.00 | 33 | 1016.1 |
| 20260503174218 | 57 | 236 | 6.0 | 8.0 | 0.00 | 0.00 | 0.00 | 33 | 1015.8 |
| 20260503173713 | 56 | 321 | 2.0 | 6.0 | 0.00 | 0.00 | 0.00 | 34 | 1016.1 |
| 20260503173209 | 55 | 80 | 4.0 | 13.0 | 0.00 | 0.00 | 0.00 | 38 | 1016.1 |
| 20260503172706 | 55 | 332 | 9.0 | 10.0 | 0.00 | 0.00 | 0.00 | 33 | 1016.2 |
| 20260503172203 | 56 | 63 | 5.0 | 13.0 | 0.00 | 0.00 | 0.00 | 34 | 1015.8 |
| 20260503171700 | 55 | 202 | 4.0 | 7.0 | 0.00 | 0.00 | 0.00 | 36 | 1015.9 |
| 20260503171157 | 54 | 298 | 2.0 | 3.0 | 0.00 | 0.00 | 0.00 | 37 | 1016.1 |